Location: Ferchesar
(52.6477°N, 12.4298°E)
Time: 17:40:16
(UTC+01:00)

Tiros 1 - Pass Details

Date: 11 December 2021
Orbit: 629 x 664 km, 48.4° (Epoch: 22 January)

Event Time Altitude Azimuth Distance (km) Brightness Sun altitude
Rises 21:06:32 0° 276° (W) 2,935 11.2 -45.3°
Enters shadow 21:07:22 - 273° (W) 2,639 10.9 -45.4°
Reaches altitude 10° 21:09:10 10° 263° (W) 2,029 - -45.7°
Maximum altitude 21:12:58 25° 209° (SSW) 1,292 - -46.2°
Drops below altitude 10° 21:16:48 10° 154° (SSE) 2,041 - -46.7°
Sets 21:19:28 0° 141° (SE) 2,955 - -47.1°
